TimeEDT,TemperatureF,Dew PointF,Humidity,Sea Level PressureIn,VisibilityMPH,Wind Direction,Wind SpeedMPH,Gust SpeedMPH,PrecipitationIn,Events,Conditions,WindDirDegrees,DateUTC
12:52 AM,57.9,55.0,90,30.22,10.0,Calm,Calm,-,N/A,,Clear,0,2013-08-17 04:52:00
1:52 AM,57.0,54.0,89,30.22,10.0,West,3.5,-,N/A,,Clear,280,2013-08-17 05:52:00
2:52 AM,57.0,53.1,87,30.22,10.0,Calm,Calm,-,N/A,,Clear,0,2013-08-17 06:52:00
3:52 AM,55.9,53.1,90,30.22,10.0,Calm,Calm,-,N/A,,Clear,0,2013-08-17 07:52:00
4:52 AM,57.0,55.0,93,30.22,10.0,NW,4.6,-,N/A,,Partly Cloudy,310,2013-08-17 08:52:00
5:52 AM,57.9,55.0,90,30.24,10.0,NNW,5.8,-,N/A,,Partly Cloudy,330,2013-08-17 09:52:00
6:52 AM,59.0,55.0,87,30.25,10.0,North,3.5,-,N/A,,Mostly Cloudy,360,2013-08-17 10:52:00
7:52 AM,59.0,55.9,90,30.26,10.0,NW,4.6,-,N/A,,Mostly Cloudy,320,2013-08-17 11:52:00
8:52 AM,66.0,55.9,70,30.27,10.0,North,5.8,-,N/A,,Mostly Cloudy,10,2013-08-17 12:52:00
9:52 AM,70.0,55.9,61,30.27,10.0,Variable,3.5,-,N/A,,Mostly Cloudy,0,2013-08-17 13:52:00
10:52 AM,75.0,55.0,50,30.27,10.0,ENE,8.1,-,N/A,,Mostly Cloudy,60,2013-08-17 14:52:00
11:52 AM,75.0,55.0,50,30.26,10.0,ENE,8.1,-,N/A,,Mostly Cloudy,70,2013-08-17 15:52:00
12:52 PM,75.9,54.0,46,30.26,10.0,Variable,6.9,-,N/A,,Mostly Cloudy,0,2013-08-17 16:52:00
1:52 PM,78.1,55.0,45,30.25,10.0,SE,5.8,-,N/A,,Overcast,130,2013-08-17 17:52:00
2:52 PM,78.1,55.9,46,30.24,10.0,ESE,11.5,-,N/A,,Mostly Cloudy,120,2013-08-17 18:52:00
3:52 PM,79.0,54.0,42,30.22,10.0,ESE,9.2,-,N/A,,Mostly Cloudy,120,2013-08-17 19:52:00
4:52 PM,78.1,54.0,43,30.22,10.0,ESE,8.1,-,N/A,,Overcast,110,2013-08-17 20:52:00
5:52 PM,77.0,54.0,45,30.22,10.0,East,4.6,-,N/A,,Overcast,100,2013-08-17 21:52:00
6:52 PM,75.0,55.0,50,30.22,10.0,ESE,5.8,-,N/A,,Overcast,120,2013-08-17 22:52:00
7:52 PM,73.9,57.0,55,30.22,10.0,East,4.6,-,N/A,,Overcast,100,2013-08-17 23:52:00
8:52 PM,73.0,55.9,55,30.23,10.0,East,4.6,-,N/A,,Overcast,100,2013-08-18 00:52:00
9:52 PM,72.0,55.9,57,30.24,10.0,East,5.8,-,N/A,,Overcast,90,2013-08-18 01:52:00
10:52 PM,71.1,57.0,61,30.23,10.0,East,5.8,-,N/A,,Scattered Clouds,100,2013-08-18 02:52:00
11:52 PM,70.0,57.9,65,30.23,10.0,Calm,Calm,-,N/A,,Overcast,0,2013-08-18 03:52:00